sat.trackr.live / text

‹ back to catalog

STARLINK-31628

NORAD 59342 · 2024-057Y

PAYLOAD ACTIVE UNKNOWN

§ Identity

Operator
Country
US
Launch date
2024-03-25
Launch site
AFETR
Launch vehicle
Mass (kg)
RCS (m²)

Purposes: comms

External: N2YO · Heavens-Above · Gunter

§ Orbital elements

Epoch: 2026-05-24T23:17:30.263424Z

Period
94.27 min
Inclination
43.0030°
Eccentricity
0.0001142
Mean motion
15.27572329 rev/d
Perigee alt
482.3 km
Apogee alt
483.9 km
Semi-major
6,861.2 km
B*
5.9019e-5
RAAN
116.4153°
Arg perigee
279.1387°
Mean anomaly
80.9335°
Rev number
12,150

§ Raw data

STARLINK-316281 59342U 24057Y   26144.97048916  .00001362  00000+0  59019-4 0  99912 59342  43.0030 116.4153 0001142 279.1387  80.9335 15.27572329121501

JSON: /api/v1/satellites/59342 · /tle

For live sub-satellite position, see the globe view (requires WebGL).

§ Visibility from observer

Set your observer location to see the next 7 days of passes ≥ 10°. The values pass through the URL so the page stays shareable.

No JS? Fill the form by hand. The geolocation button needs JavaScript.